Weather History for EGNR - August, 2014

Change the Weather History Date:

Friday, August 8, 2014

  Actual Average (EGGP) Record (EGGP)
Temperature  
Mean Temperature 61 °F -  
Max Temperature 75 °F 66 °F 84 °F (2004)
Min Temperature 47 °F 54 °F 51 °F (2013)
Degree Days  
Heating Degree Days 4    
Growing Degree Days 11 (Base 50)    
Moisture  
Dew Point 54 °F    
Average Humidity 74    
Maximum Humidity 94    
Minimum Humidity 38    
Precipitation  
Precipitation 0.00 in - - ()
Sea Level Pressure  
Sea Level Pressure 29.79 in    
Wind  
Wind Speed 5 mph ()    
Max Wind Speed 18 mph    
Max Gust Speed -    
Visibility 7.7 miles    
Events      
Averages and records for this station are not official NWS values.
T = Trace of Precipitation, MM = Missing Value Source: Averaged Metar Reports

Daily Weather History Graph

Daily Weather History Graph

Search for Another Location

Airport or City:

Trip Planner

Search our weather history database for the weather conditions in past years. The results will help you decide how hot, cold, wet, or windy it might be!

Date:

Astronomy

Aug. 08, 2014 Rise Set
Actual Time 5:40 AM BST 8:53 PM BST
Civil Twilight 4:58 AM BST 9:34 PM BST
Nautical Twilight 4:03 AM BST 10:29 PM BST
Astronomical Twilight 2:47 AM BST 11:43 PM BST
Moon 6:56 PM BST (8/8) 2:50 AM BST (8/8)
Length of Visible Light 16h 35m
Length of Day
15h 13m
Waxing Gibbous, 92% of the Moon is Illuminated
Aug 8
Waxing Gibbous
Aug 10
Full
Aug 17
Last Quarter
Aug 25
New
Sep 2
First Quarter

Hourly Weather History & Observations

Time (BST) Temp. Dew Point Humidity Pressure Visibility Wind Dir Wind Speed Gust Speed Precip Events Conditions
12:00 AM 51 °F 48 °F 87% 29.98 in 28 mi NNW 1.2 mph - -   Mostly Cloudy
1:00 AM 49 °F 47 °F 90% 29.98 in 19 mi Calm Calm - -   Scattered Clouds
2:00 AM 48 °F 46 °F 91% 29.97 in 22 mi Calm Calm - -   Partly Cloudy
3:00 AM 48 °F 45 °F 84% 29.94 in 25 mi ENE 2.3 mph - -   Scattered Clouds
4:00 AM 49 °F 46 °F 85% 29.93 in 17 mi NE 1.2 mph - -   Scattered Clouds
5:00 AM 48 °F 47 °F 93% 29.91 in 17 mi Calm Calm - -   Scattered Clouds
6:00 AM 49 °F 47 °F 89% 29.90 in 19 mi SSW 2.3 mph - -   Scattered Clouds
6:20 AM 51.8 °F 50.0 °F 94% 29.89 in 6.2 mi South 1.2 mph - N/A   Scattered Clouds
6:50 AM 51.8 °F 50.0 °F 94% 29.89 in 6.2 mi South 4.6 mph - N/A   Scattered Clouds
7:00 AM 51 °F 48 °F 87% 29.88 in 17 mi South 3.5 mph - -  
7:20 AM 53.6 °F 50.0 °F 88% 29.89 in 6.2 mi SSE 4.6 mph - N/A   Mostly Cloudy
7:50 AM 55.4 °F 51.8 °F 88% 29.86 in 6.2 mi SE 5.8 mph - N/A   Mostly Cloudy
8:00 AM 55 °F 51 °F 81% 29.88 in 12 mi SE 5.8 mph - -   Mostly Cloudy
8:20 AM 57.2 °F 53.6 °F 88% 29.86 in 3.7 mi SSE 5.8 mph - N/A   Mostly Cloudy
8:50 AM 57.2 °F 55.4 °F 94% 29.86 in 2.2 mi SSE 5.8 mph - N/A   Haze
9:00 AM 56 °F 53 °F 87% 29.86 in 3 mi SSE 5.8 mph - -   Light Haze
9:20 AM 59.0 °F 57.2 °F 94% 29.83 in 2.2 mi SSE 4.6 mph - N/A   Haze
9:50 AM 57.2 °F 55.4 °F 94% 29.83 in 3.7 mi SE 5.8 mph - N/A   Mostly Cloudy
10:00 AM 58 °F 55 °F 88% 29.84 in 4 mi SE 5.8 mph - -   Light Haze
10:20 AM 59.0 °F 57.2 °F 94% 29.83 in 3.7 mi SSE 4.6 mph - N/A   Overcast
11:00 AM 62 °F 58 °F 81% 29.83 in 4 mi SSE 6.9 mph - -   Light Haze
11:20 AM 64.4 °F 59.0 °F 83% 29.80 in 4.3 mi SSE 8.1 mph - N/A   Mostly Cloudy
11:50 AM 66.2 °F 60.8 °F 83% 29.80 in 4.3 mi SE 9.2 mph - N/A   Scattered Clouds
12:00 PM 66 °F 58 °F 69% 29.81 in 5 mi SE 8.1 mph - -   Light Haze
12:20 PM 66.2 °F 60.8 °F 83% 29.80 in 5.0 mi SSE 6.9 mph - N/A   Scattered Clouds
12:50 PM 68.0 °F 60.8 °F 78% 29.77 in 5.6 mi SE 8.1 mph - N/A   Scattered Clouds
1:00 PM 67 °F 59 °F 68% 29.78 in 6 mi SE 9.2 mph - -   Scattered Clouds
1:20 PM 69.8 °F 59.0 °F 68% 29.77 in 5.6 mi SSE 8.1 mph - N/A   Scattered Clouds
1:50 PM 73.4 °F 57.2 °F 57% 29.74 in 6.2 mi SSE 8.1 mph - N/A   Partly Cloudy
2:00 PM 71 °F 56 °F 50% 29.75 in 8 mi SSE 6.9 mph - -   Scattered Clouds
2:20 PM 73.4 °F 57.2 °F 57% 29.74 in 6.2 mi Variable 3.5 mph - N/A   Partly Cloudy
2:50 PM 75.2 °F 57.2 °F 53% 29.71 in 6.2 mi Variable 4.6 mph - N/A   Partly Cloudy
3:00 PM 73 °F 55 °F 43% 29.72 in 14 mi SSE 4.6 mph - -   Scattered Clouds
3:20 PM 77.0 °F 55.4 °F 47% 29.71 in 6.2 mi South 5.8 mph - N/A   Partly Cloudy
4:00 PM 75 °F 54 °F 38% 29.70 in 25 mi SSE 8.1 mph - -   Scattered Clouds
4:20 PM 68.0 °F 55.4 °F 64% 29.71 in 6.2 mi NW 18.4 mph - N/A   Partly Cloudy
5:00 PM 68 °F 52 °F 46% 29.70 in 22 mi NW 15.0 mph - -   Scattered Clouds
5:50 PM 66.2 °F 55.4 °F 68% 29.68 in 6.2 mi NNW 13.8 mph - N/A   Partly Cloudy
6:00 PM 67 °F 54 °F 54% 29.69 in 22 mi NNW 10.4 mph - -   Scattered Clouds
6:20 PM 66.2 °F 55.4 °F 68% 29.68 in 6.2 mi NNW 11.5 mph - N/A   Partly Cloudy
6:50 PM 66.2 °F 55.4 °F 68% 29.68 in 6.2 mi NNW 13.8 mph - N/A   Partly Cloudy
7:00 PM 66 °F 54 °F 56% 29.68 in 17 mi NW 10.4 mph - -   Partly Cloudy
7:20 PM 66.2 °F 55.4 °F 68% 29.68 in 6.2 mi NNW 9.2 mph - N/A   Partly Cloudy
7:50 PM 64.4 °F 53.6 °F 68% 29.68 in 6.2 mi NNW 9.2 mph - N/A   Partly Cloudy
8:00 PM 64 °F 53 °F 58% 29.68 in 28 mi NNW 8.1 mph - -   Scattered Clouds
8:20 PM 64.4 °F 53.6 °F 68% 29.68 in 6.2 mi NNW 10.4 mph - N/A   Partly Cloudy
8:50 PM 62.6 °F 53.6 °F 72% 29.68 in 6.2 mi NNW 6.9 mph - N/A   Partly Cloudy
9:00 PM 63 °F 53 °F 61% 29.67 in 25 mi NNW 6.9 mph - -  
10:00 PM 62 °F 53 °F 66% 29.68 in 16 mi NNW 4.6 mph - -   Partly Cloudy
11:00 PM 60 °F 53 °F 69% 29.67 in 22 mi West 3.5 mph - -   Scattered Clouds